| ID | Machine | Gebeurtenis | Tijd | Uren | Service | Status | USB ID | |
|---|---|---|---|---|---|---|---|---|
| 169370 | 100-060XAB-S5 | Generator Over Current Warning | 03-10-2024 06:38:20 | 881 | 500 | OVER BEURT URGENT! | 2592AF31ADA | |
| 169369 | 100-060XAB-S5 | Generator Over Current Warning | 03-10-2024 06:37:23 | 881 | 500 | OVER BEURT URGENT! | 2592AF31ADA | |
| 169216 | 100-060XAB-S5 | Generator Over Current Warning | 03-10-2024 05:27:19 | 880 | 500 | OVER BEURT URGENT! | 2592AF31ADA | |
| 169215 | 100-060XAB-S5 | Engine Start | 03-10-2024 05:20:39 | 880 | 500 | OVER BEURT URGENT! | 2592AF31ADA | |
| 169214 | 100-060XAB-S5 | Engine Stopped | 03-10-2024 05:19:03 | 880 | 500 | OVER BEURT URGENT! | 2592AF31ADA | |
| 169213 | 100-060XAB-S5 | Engine Start | 03-10-2024 05:18:54 | 880 | 500 | OVER BEURT URGENT! | 2592AF31ADA | |
| 169211 | 100-060XAB-S5 | Engine Stopped | 03-10-2024 05:13:59 | 880 | 500 | OVER BEURT URGENT! | 2592AF31ADA | |
| 169209 | 100-060XAB-S5 | Generator Under Volts Warning | 03-10-2024 05:13:50 | 880 | 500 | OVER BEURT URGENT! | 2592AF31ADA | |
| 169210 | 100-060XAB-S5 | Engine Start | 03-10-2024 05:13:01 | 880 | 500 | OVER BEURT URGENT! | 2592AF31ADA | |
| 169207 | 100-060XAB-S5 | Engine Stopped | 03-10-2024 05:11:25 | 880 | 500 | OVER BEURT URGENT! | 2592AF31ADA | |
| 169208 | 100-060XAB-S5 | Generator Under Volts Warning | 03-10-2024 05:11:16 | 880 | 500 | OVER BEURT URGENT! | 2592AF31ADA | |
| 169206 | 100-060XAB-S5 | Engine Start | 03-10-2024 05:08:11 | 880 | 500 | OVER BEURT URGENT! | 2592AF31ADA | |
| 169141 | 100-060XAB-S5 | Engine Stopped | 02-10-2024 13:19:09 | 880 | 500 | OVER BEURT URGENT! | 2592AF31ADA | |
| 169142 | 100-060XAB-S5 | Generator Under Volts Warning | 02-10-2024 13:19:00 | 880 | 500 | OVER BEURT URGENT! | 2592AF31ADA | |
| 169136 | 100-060XAB-S5 | Engine Start | 02-10-2024 12:54:36 | 879 | 500 | OVER BEURT URGENT! | 2592AF31ADA | |
| 169134 | 100-060XAB-S5 | Engine Stopped | 02-10-2024 12:53:07 | 879 | 500 | OVER BEURT URGENT! | 2592AF31ADA | |
| 169135 | 100-060XAB-S5 | Generator Under Volts Shutdown | 02-10-2024 12:52:58 | 879 | 500 | OVER BEURT URGENT! | 2592AF31ADA | |
| 169130 | 100-060XAB-S5 | Engine Start | 02-10-2024 12:51:13 | 879 | 500 | OVER BEURT URGENT! | 2592AF31ADA | |
| 169119 | 100-060XAB-S5 | Engine Stopped | 02-10-2024 12:43:28 | 879 | 500 | OVER BEURT URGENT! | 2592AF31ADA | |
| 169121 | 100-060XAB-S5 | Generator Under Volts Warning | 02-10-2024 12:43:19 | 879 | 500 | OVER BEURT URGENT! | 2592AF31ADA | |
| 169110 | 100-060XAB-S5 | Engine Start | 02-10-2024 12:39:18 | 879 | 500 | OVER BEURT URGENT! | 2592AF31ADA | |
| 169111 | 100-060XAB-S5 | Engine Stopped | 02-10-2024 12:39:01 | 879 | 500 | OVER BEURT URGENT! | 2592AF31ADA | |
| 169109 | 100-060XAB-S5 | Generator Under Volts Warning | 02-10-2024 12:38:52 | 879 | 500 | OVER BEURT URGENT! | 2592AF31ADA | |
| 169088 | 100-060XAB-S5 | POWER DOOR OPEN Warning | 02-10-2024 12:29:48 | 879 | 500 | OVER BEURT URGENT! | 2592AF31ADA | |
| 169089 | 100-060XAB-S5 | Engine Start | 02-10-2024 12:29:31 | 879 | 500 | OVER BEURT URGENT! | 2592AF31ADA |